PPDSL SSCK-SSHZ

Flight info

Callsign PPDSL
Flight time 0h 48m
Altitude 8500
Route DCT 2717S05234W 2733S05354W DCT
Aircraft C208/L-SDFGR/C

Departure

Time 2026-04-14 14:40
Airport Olavo Cecco Rigon Airport (SSCK)

Arrival

Time 2026-04-14 15:29
Airport Walter Bündchen Airport (SSHZ)
Time Latitude Longitude Altitude Speed Heading
2026-04-14 14:31 -27.18377 -52.04848 2460 ft 0 kts 221°
2026-04-14 14:36 -27.18378 -52.04848 2460 ft 1 kts 193°
2026-04-14 14:37 -27.18380 -52.04843 2460 ft 0 kts 74°
2026-04-14 14:37 -27.18380 -52.04842 2460 ft 1 kts 63°
2026-04-14 14:37 -27.18379 -52.04841 2460 ft 0 kts 50°
2026-04-14 14:37 -27.18367 -52.04822 2461 ft 3 kts 76°
2026-04-14 14:38 -27.18366 -52.04819 2463 ft 0 kts 75°
2026-04-14 14:38 -27.18366 -52.04818 2463 ft 1 kts 75°
2026-04-14 14:38 -27.18343 -52.04781 2463 ft 11 kts 88°
2026-04-14 14:39 -27.18387 -52.04720 2460 ft 13 kts 131°
2026-04-14 14:39 -27.18436 -52.04623 2454 ft 5 kts 112°
2026-04-14 14:39 -27.18461 -52.04614 2453 ft 0 kts 269°
2026-04-14 14:39 -27.18454 -52.04630 2454 ft 7 kts 306°
2026-04-14 14:40 -27.18296 -52.04843 2462 ft 70 kts 308°
2026-04-14 14:40 -27.17902 -52.05401 2585 ft 98 kts 313°
2026-04-14 14:40 -27.17492 -52.06024 2912 ft 100 kts 310°
2026-04-14 14:40 -27.17091 -52.06658 3159 ft 104 kts 303°
2026-04-14 14:41 -27.16676 -52.07356 3184 ft 115 kts 306°
2026-04-14 14:41 -27.16607 -52.08323 3305 ft 139 kts 249°
2026-04-14 14:41 -27.16955 -52.09285 3724 ft 130 kts 253°
2026-04-14 14:41 -27.17184 -52.10275 4114 ft 134 kts 256°
2026-04-14 14:42 -27.17432 -52.11299 4555 ft 136 kts 257°
2026-04-14 14:42 -27.17692 -52.12326 4873 ft 137 kts 262°
2026-04-14 14:42 -27.17912 -52.13368 5250 ft 137 kts 258°
2026-04-14 14:42 -27.18137 -52.14414 5571 ft 137 kts 264°
2026-04-14 14:43 -27.18358 -52.15468 5922 ft 139 kts 257°
2026-04-14 14:43 -27.18592 -52.16520 6173 ft 139 kts 260°
2026-04-14 14:43 -27.18823 -52.17574 6402 ft 139 kts 260°
2026-04-14 14:43 -27.19058 -52.18641 6659 ft 141 kts 259°
2026-04-14 14:44 -27.19279 -52.19698 6898 ft 139 kts 260°
2026-04-14 14:44 -27.19500 -52.20754 7128 ft 139 kts 261°
2026-04-14 14:44 -27.19731 -52.21807 7464 ft 139 kts 259°
2026-04-14 14:44 -27.19974 -52.22851 7657 ft 140 kts 260°
2026-04-14 14:45 -27.20192 -52.23913 7866 ft 140 kts 260°
2026-04-14 14:45 -27.20423 -52.24977 8123 ft 140 kts 260°
2026-04-14 14:45 -27.20653 -52.26037 8363 ft 140 kts 260°
2026-04-14 14:45 -27.20892 -52.27103 8561 ft 143 kts 261°
2026-04-14 14:46 -27.21118 -52.28242 8568 ft 155 kts 260°
2026-04-14 14:46 -27.21378 -52.29436 8576 ft 160 kts 260°
2026-04-14 14:46 -27.21640 -52.30655 8572 ft 161 kts 262°
2026-04-14 14:46 -27.21908 -52.31893 8576 ft 164 kts 258°
2026-04-14 14:47 -27.22194 -52.33137 8576 ft 165 kts 260°
2026-04-14 14:47 -27.22454 -52.34386 8573 ft 163 kts 261°
2026-04-14 14:47 -27.22709 -52.35615 8572 ft 161 kts 259°
2026-04-14 14:47 -27.22978 -52.36839 8576 ft 162 kts 261°
2026-04-14 14:48 -27.23240 -52.38059 8586 ft 160 kts 259°
2026-04-14 14:48 -27.23505 -52.39287 8574 ft 161 kts 260°
2026-04-14 14:48 -27.23765 -52.40509 8576 ft 161 kts 260°
2026-04-14 14:48 -27.24022 -52.41711 8586 ft 159 kts 260°
2026-04-14 14:49 -27.24287 -52.42930 8587 ft 160 kts 260°
2026-04-14 14:49 -27.24542 -52.44156 8595 ft 162 kts 260°
2026-04-14 14:49 -27.24821 -52.45391 8607 ft 166 kts 260°
2026-04-14 14:49 -27.25088 -52.46657 8600 ft 166 kts 260°
2026-04-14 14:50 -27.25354 -52.47910 8602 ft 164 kts 259°
2026-04-14 14:50 -27.25622 -52.49160 8601 ft 165 kts 260°
2026-04-14 14:50 -27.25893 -52.50418 8614 ft 167 kts 259°
2026-04-14 14:50 -27.26160 -52.51686 8601 ft 166 kts 261°
2026-04-14 14:51 -27.26433 -52.52951 8602 ft 166 kts 260°
2026-04-14 14:51 -27.26703 -52.54210 8612 ft 166 kts 260°
2026-04-14 14:51 -27.26970 -52.55468 8603 ft 164 kts 261°
2026-04-14 14:51 -27.27237 -52.56721 8610 ft 166 kts 261°
2026-04-14 14:52 -27.27502 -52.57969 8601 ft 167 kts 259°
2026-04-14 14:52 -27.27778 -52.59220 8602 ft 163 kts 261°
2026-04-14 14:52 -27.28038 -52.60482 8602 ft 167 kts 261°
2026-04-14 14:52 -27.28310 -52.61752 8606 ft 167 kts 260°
2026-04-14 14:53 -27.28581 -52.63016 8602 ft 165 kts 260°
2026-04-14 14:53 -27.28850 -52.64265 8616 ft 164 kts 260°
2026-04-14 14:53 -27.29113 -52.65527 8617 ft 166 kts 262°
2026-04-14 14:53 -27.29373 -52.66792 8599 ft 165 kts 259°
2026-04-14 14:54 -27.29656 -52.68031 8604 ft 163 kts 260°
2026-04-14 14:54 -27.29918 -52.69275 8600 ft 164 kts 261°
2026-04-14 14:54 -27.30177 -52.70516 8599 ft 164 kts 261°
2026-04-14 14:54 -27.30440 -52.71759 8595 ft 163 kts 260°
2026-04-14 14:55 -27.30708 -52.73006 8594 ft 164 kts 260°
2026-04-14 14:55 -27.30970 -52.74238 8594 ft 163 kts 261°
2026-04-14 14:55 -27.31228 -52.75485 8592 ft 163 kts 260°
2026-04-14 14:55 -27.31496 -52.76737 8599 ft 167 kts 261°
2026-04-14 14:56 -27.32035 -52.79269 8603 ft 166 kts 261°
2026-04-14 14:56 -27.32301 -52.80542 8590 ft 168 kts 260°
2026-04-14 14:56 -27.32573 -52.81821 8589 ft 168 kts 260°
2026-04-14 14:57 -27.32845 -52.83092 8573 ft 165 kts 261°
2026-04-14 14:57 -27.33110 -52.84340 8577 ft 165 kts 261°
2026-04-14 14:57 -27.33378 -52.85606 8563 ft 166 kts 261°
2026-04-14 14:57 -27.33639 -52.86858 8559 ft 164 kts 260°
2026-04-14 14:58 -27.33896 -52.88101 8556 ft 163 kts 261°
2026-04-14 14:58 -27.34155 -52.89343 8550 ft 162 kts 260°
2026-04-14 14:58 -27.34423 -52.90567 8550 ft 161 kts 260°
2026-04-14 14:58 -27.34689 -52.91804 8548 ft 163 kts 261°
2026-04-14 14:59 -27.34943 -52.93047 8543 ft 164 kts 261°
2026-04-14 14:59 -27.35205 -52.94301 8543 ft 165 kts 261°
2026-04-14 14:59 -27.35467 -52.95548 8535 ft 163 kts 261°
2026-04-14 14:59 -27.35727 -52.96780 8531 ft 161 kts 261°
2026-04-14 15:00 -27.35989 -52.98001 8534 ft 160 kts 260°
2026-04-14 15:00 -27.36244 -52.99217 8529 ft 160 kts 261°
2026-04-14 15:00 -27.36497 -53.00432 8529 ft 158 kts 261°
2026-04-14 15:00 -27.36747 -53.01620 8529 ft 158 kts 261°
2026-04-14 15:01 -27.37000 -53.02852 8537 ft 161 kts 261°
2026-04-14 15:01 -27.37258 -53.04058 8538 ft 161 kts 259°
2026-04-14 15:01 -27.37516 -53.05286 8542 ft 163 kts 261°
2026-04-14 15:01 -27.37781 -53.06542 8542 ft 167 kts 259°
2026-04-14 15:02 -27.38047 -53.07813 8532 ft 165 kts 260°
2026-04-14 15:02 -27.38306 -53.09070 8528 ft 165 kts 260°
2026-04-14 15:02 -27.38570 -53.10329 8538 ft 167 kts 260°
2026-04-14 15:02 -27.38838 -53.11606 8545 ft 169 kts 261°
2026-04-14 15:03 -27.39103 -53.12895 8528 ft 168 kts 259°
2026-04-14 15:03 -27.39379 -53.14165 8527 ft 167 kts 260°
2026-04-14 15:03 -27.39645 -53.15438 8526 ft 167 kts 260°
2026-04-14 15:03 -27.39906 -53.16703 8529 ft 165 kts 260°
2026-04-14 15:04 -27.40161 -53.17955 8525 ft 163 kts 260°
2026-04-14 15:04 -27.40424 -53.19189 8526 ft 161 kts 260°
2026-04-14 15:04 -27.40673 -53.20421 8523 ft 163 kts 260°
2026-04-14 15:04 -27.40938 -53.21644 8527 ft 163 kts 260°
2026-04-14 15:05 -27.41196 -53.22893 8519 ft 163 kts 260°
2026-04-14 15:05 -27.41455 -53.24136 8532 ft 163 kts 260°
2026-04-14 15:05 -27.41715 -53.25388 8524 ft 164 kts 261°
2026-04-14 15:05 -27.41975 -53.26646 8524 ft 164 kts 259°
2026-04-14 15:06 -27.42239 -53.27890 8528 ft 163 kts 260°
2026-04-14 15:06 -27.42495 -53.29129 8528 ft 162 kts 260°
2026-04-14 15:06 -27.42748 -53.30375 8525 ft 164 kts 260°
2026-04-14 15:06 -27.43006 -53.31618 8526 ft 163 kts 259°
2026-04-14 15:07 -27.43270 -53.32863 8521 ft 164 kts 259°
2026-04-14 15:07 -27.43529 -53.34110 8517 ft 162 kts 261°
2026-04-14 15:07 -27.43777 -53.35349 8521 ft 163 kts 259°
2026-04-14 15:07 -27.43960 -53.36172 8523 ft 163 kts 260°
2026-04-14 15:08 -27.44215 -53.37419 8527 ft 163 kts 260°
2026-04-14 15:08 -27.44469 -53.38655 8521 ft 162 kts 261°
2026-04-14 15:08 -27.44724 -53.39895 8518 ft 163 kts 260°
2026-04-14 15:08 -27.44986 -53.41134 8524 ft 163 kts 260°
2026-04-14 15:09 -27.45239 -53.42380 8523 ft 163 kts 260°
2026-04-14 15:09 -27.45493 -53.43626 8527 ft 164 kts 260°
2026-04-14 15:09 -27.45750 -53.44877 8519 ft 164 kts 260°
2026-04-14 15:09 -27.46016 -53.46114 8527 ft 162 kts 259°
2026-04-14 15:10 -27.46270 -53.47347 8525 ft 162 kts 261°
2026-04-14 15:10 -27.46516 -53.48588 8520 ft 162 kts 260°
2026-04-14 15:10 -27.46779 -53.49819 8524 ft 162 kts 260°
2026-04-14 15:10 -27.47027 -53.51045 8519 ft 162 kts 260°
2026-04-14 15:11 -27.47280 -53.52288 8523 ft 164 kts 260°
2026-04-14 15:11 -27.47539 -53.53526 8519 ft 162 kts 260°
2026-04-14 15:11 -27.47794 -53.54758 8514 ft 161 kts 259°
2026-04-14 15:11 -27.48049 -53.55993 8517 ft 163 kts 261°
2026-04-14 15:12 -27.48302 -53.57240 8522 ft 164 kts 260°
2026-04-14 15:12 -27.48557 -53.58496 8526 ft 166 kts 259°
2026-04-14 15:12 -27.48824 -53.59770 8528 ft 167 kts 260°
2026-04-14 15:12 -27.49090 -53.61051 8521 ft 168 kts 259°
2026-04-14 15:13 -27.49350 -53.62315 8515 ft 165 kts 259°
2026-04-14 15:13 -27.49604 -53.63581 8523 ft 167 kts 260°
2026-04-14 15:13 -27.49861 -53.64847 8524 ft 164 kts 261°
2026-04-14 15:13 -27.50122 -53.66106 8514 ft 164 kts 260°
2026-04-14 15:14 -27.50380 -53.67359 8526 ft 166 kts 260°
2026-04-14 15:14 -27.50641 -53.68631 8513 ft 166 kts 258°
2026-04-14 15:14 -27.50901 -53.69877 8513 ft 162 kts 261°
2026-04-14 15:14 -27.51143 -53.71127 8514 ft 165 kts 260°
2026-04-14 15:15 -27.51413 -53.72388 8518 ft 165 kts 259°
2026-04-14 15:15 -27.51667 -53.73639 8515 ft 163 kts 261°
2026-04-14 15:15 -27.51913 -53.74892 8520 ft 165 kts 260°
2026-04-14 15:15 -27.52176 -53.76152 8518 ft 165 kts 260°
2026-04-14 15:16 -27.52431 -53.77412 8511 ft 164 kts 260°
2026-04-14 15:16 -27.52690 -53.78659 8512 ft 163 kts 261°
2026-04-14 15:16 -27.52944 -53.79906 8508 ft 163 kts 260°
2026-04-14 15:16 -27.53190 -53.81126 8504 ft 162 kts 260°
2026-04-14 15:17 -27.53442 -53.82363 8518 ft 162 kts 259°
2026-04-14 15:17 -27.53697 -53.83605 8513 ft 163 kts 261°
2026-04-14 15:17 -27.53947 -53.84859 8511 ft 164 kts 261°
2026-04-14 15:17 -27.54203 -53.86115 8510 ft 164 kts 260°
2026-04-14 15:18 -27.54457 -53.87363 8516 ft 164 kts 259°
2026-04-14 15:18 -27.54719 -53.88627 8508 ft 166 kts 260°
2026-04-14 15:18 -27.54977 -53.89901 8456 ft 168 kts 260°
2026-04-14 15:18 -27.55236 -53.91214 8285 ft 175 kts 261°
2026-04-14 15:19 -27.55512 -53.92567 8096 ft 180 kts 261°
2026-04-14 15:19 -27.55800 -53.93953 7882 ft 181 kts 263°
2026-04-14 15:19 -27.56075 -53.95326 7680 ft 184 kts 262°
2026-04-14 15:19 -27.56345 -53.96722 7481 ft 183 kts 262°
2026-04-14 15:20 -27.56629 -53.98133 7263 ft 185 kts 260°
2026-04-14 15:20 -27.56927 -53.99533 7067 ft 181 kts 262°
2026-04-14 15:20 -27.57194 -54.00899 6875 ft 178 kts 262°
2026-04-14 15:20 -27.57477 -54.02263 6678 ft 180 kts 260°
2026-04-14 15:21 -27.57759 -54.03638 6488 ft 179 kts 262°
2026-04-14 15:21 -27.58031 -54.05022 6271 ft 183 kts 260°
2026-04-14 15:21 -27.58319 -54.06413 6073 ft 181 kts 262°
2026-04-14 15:21 -27.58590 -54.07797 5872 ft 182 kts 262°
2026-04-14 15:22 -27.58872 -54.09189 5657 ft 181 kts 262°
2026-04-14 15:22 -27.59138 -54.10560 5470 ft 178 kts 261°
2026-04-14 15:22 -27.59428 -54.11914 5269 ft 177 kts 261°
2026-04-14 15:22 -27.59701 -54.13269 5081 ft 178 kts 262°
2026-04-14 15:23 -27.59967 -54.14627 4879 ft 178 kts 262°
2026-04-14 15:23 -27.60235 -54.15983 4677 ft 177 kts 263°
2026-04-14 15:23 -27.60507 -54.17335 4486 ft 177 kts 261°
2026-04-14 15:23 -27.60788 -54.18698 4288 ft 180 kts 262°
2026-04-14 15:24 -27.61063 -54.20083 4088 ft 182 kts 262°
2026-04-14 15:24 -27.61338 -54.21461 3886 ft 176 kts 262°
2026-04-14 15:24 -27.61608 -54.22809 3676 ft 177 kts 262°
2026-04-14 15:24 -27.61890 -54.24167 3493 ft 179 kts 259°
2026-04-14 15:25 -27.62232 -54.25516 3341 ft 179 kts 258°
2026-04-14 15:25 -27.62546 -54.26808 3147 ft 164 kts 259°
2026-04-14 15:25 -27.62828 -54.27997 2969 ft 153 kts 263°
2026-04-14 15:25 -27.63126 -54.29134 2773 ft 152 kts 256°
2026-04-14 15:26 -27.63374 -54.30267 2595 ft 146 kts 270°
2026-04-14 15:26 -27.63071 -54.31213 2445 ft 116 kts 322°
2026-04-14 15:26 -27.62493 -54.31730 2360 ft 100 kts 323°
2026-04-14 15:26 -27.61996 -54.32252 2287 ft 100 kts 321°
2026-04-14 15:27 -27.61468 -54.32788 2198 ft 102 kts 323°
2026-04-14 15:27 -27.60940 -54.33336 2122 ft 104 kts 323°
2026-04-14 15:27 -27.60421 -54.33905 2068 ft 106 kts 319°
2026-04-14 15:27 -27.60272 -54.34726 1959 ft 118 kts 251°
2026-04-14 15:28 -27.60797 -54.35481 1866 ft 125 kts 230°
2026-04-14 15:28 -27.61511 -54.36011 1708 ft 124 kts 188°
2026-04-14 15:28 -27.62233 -54.35626 1518 ft 117 kts 125°
2026-04-14 15:28 -27.62725 -54.34960 1350 ft 109 kts 125°
2026-04-14 15:29 -27.63289 -54.34400 1117 ft 104 kts 136°
2026-04-14 15:29 -27.63784 -54.33941 1027 ft 72 kts 139°
2026-04-14 15:29 -27.63981 -54.33764 1028 ft 21 kts 141°
2026-04-14 15:29 -27.64036 -54.33764 1028 ft 9 kts 238°
2026-04-14 15:30 -27.64048 -54.33803 1027 ft 5 kts 281°
2026-04-14 15:30 -27.64055 -54.33809 1026 ft 0 kts 137°